ATLAS 5 CENTAUR DEB, 44682

Orbit data source: Space-Track

ATLAS 5 CENTAUR DEB, 44682 is space debris in HEO originally from a launch on Wed, 17 Oct 2018 UTC launched from the Air Force Eastern Test Range (AFETR). Debris objects in space refer to the collection of defunct objects orbiting the Earth. Examples of debris include non-operational satellites, rocket bodies, and fragments generated from explosions, collisions, or faulty payload assembly.

Loading next visibility...
Identifier
44682, 2018-079AU
Orbit
HEO
Country
Flag of USUS
Related business
Flag of USUnited Launch Alliance/Lockheed Martin (US)
Manufacturer
ULA Decatur
Mission
Spacecraft
Bus & Motor
Unknown
Mass
Unknown
Launch date (UTC)
2018-10-17 (8 years ago)
Launch vehicle
Unknown
Launch site
Air Force Eastern Test Range (AFETR)
Object type
Payload
Rocket body
Debris
Shape & HBR
Unknown shape, 1.1 m
Radar Cross Section
Medium (>0.1 m² and <1 m²)

Expand to show TLE details & history
Last TLE update: 1 day ago

TLE from 1 day ago
0 ATLAS 5 CENTAUR DEB
1 44682U 18079AU  26264.66503914 -.00000199  00000-0  00000-0 0  9993
2 44682  13.4938  28.0243 4639808 327.6387  10.8472  1.81923738 48610
Epoch: 2026-09-21T15:57Z
TLE epoch observation values (Epoch: 2026-09-21T15:57:39.381Z)
Latitude
-0.00016°
Longitude
148.09398°
Altitude
9,573.042 km
Speed
5.993 km/s
True Right ascension
01h 52m 11s
True Declination
0° 00' 01"
Sunlit
Object was in daylight at epoch
Visualization orbit readout
Latitude
Unknown
Longitude
Unknown
Altitude
Unknown
Speed
Unknown
Apparent Right ascension
Unknown
Apparent Declination
Unknown
Sunlit
N/A
Visualization observer readout
Local Sidereal Time
11:16:16
Azimuth
Unknown
Elevation
Unknown
Doppler factor
Unknown
Orbital elements
Apogee altitude
35,121.347 km
Perigee altitude
8,816.407 km
Semi-major axis
28,347.014 km
Eccentricity
0.46398
Inclination
13.4938°
RAAN
28.0243°
Arg. of periapsis
327.6387°
True anomaly
32.32419°
Mean anomaly
10.8472°
Eccentric anomaly
19.89272°
Mean motion
0.45476 °/min
Orbital period
791.63 mins
BSTAR
0
Loading maneuver chart data...
Computing Atmospheric mass density...

Documentation

Showing up to 5 results
|